Weather reports worldwide

Advertisment
Gallivare, Sweden (2049): temperature & dewpoint: 29.07.2020 17:00:00 - 04.08.2020 17:00:00 (CEST)Gallivare, Sweden (2049): wind speed & gusts: 29.07.2020 17:00:00 - 04.08.2020 17:00:00 (CEST)Gallivare, Sweden (2049): wind direction: 29.07.2020 17:00:00 - 04.08.2020 17:00:00 (CEST)Gallivare, Sweden (2049): reduced air pressure: 29.07.2020 17:00:00 - 04.08.2020 17:00:00 (CEST)Gallivare, Sweden (2049): visibility: 29.07.2020 17:00:00 - 04.08.2020 17:00:00 (CEST)Gallivare, Sweden (2049): precipitation: 29.07.2020 17:00:00 - 04.08.2020 17:00:00 (CEST)
Date & Time tt [°C] td [°C] ff [km/h] ff [kn] fx [km/h] fx [kn] dd ppp [hPa] vv [km] rr [mm]
04.08.2020 17:00:00 - - - - - - - - - -
04.08.2020 16:00:00 16,1 9,5 4 2 9 5 ENE 1002,3 43 0,0
04.08.2020 15:00:00 16,9 9,3 3 2 13 7 NE 1002,1 37 0,1
04.08.2020 14:00:00 15,6 12,7 2 1 7 4 SW 1002,5 13 0,0
04.08.2020 13:00:00 15,5 10,9 4 2 6 3 W 1002,1 45 0,0
04.08.2020 12:00:00 16,2 9,8 3 2 8 4 SSE 1002,1 38 0,0
04.08.2020 11:00:00 15,5 10,5 3 1 7 4 W 1002,3 41 0,0
04.08.2020 10:00:00 14,7 10,3 4 2 8 4 NNW 1002,3 31 0,0
04.08.2020 09:00:00 13,4 10,2 0 0 3 2 N 1002,5 29 0,0
04.08.2020 08:00:00 11,5 9,4 2 1 5 3 ENE 1002,6 43 0,0
04.08.2020 07:00:00 10,9 9,0 0 0 4 2 N 1002,7 19 0,0
04.08.2020 06:00:00 10,6 9,7 0 0 5 3 N 1002,7 18 0,0
04.08.2020 05:00:00 10,3 9,8 0 0 4 2 N 1002,9 17 0,1
04.08.2020 04:00:00 8,4 8,3 0 0 5 3 N 1003,4 12 0,3
04.08.2020 03:00:00 5,7 5,4 2 1 5 3 WNW 1004,0 14 0,0
04.08.2020 02:00:00 5,9 5,3 2 1 6 4 W 1003,9 11 0,0
04.08.2020 01:00:00 7,8 7,0 2 1 7 4 S 1003,5 19 0,0
04.08.2020 00:00:00 9,4 7,5 3 2 9 5 E 1003,1 37 0,0
03.08.2020 23:00:00 9,4 7,9 3 1 10 6 NE 1003,0 34 0,0
03.08.2020 22:00:00 11,0 8,4 0 0 7 4 N 1002,6 36 0,0
03.08.2020 21:00:00 12,2 9,0 3 1 6 3 SSW 1002,4 31 0,0
03.08.2020 20:00:00 14,3 9,5 3 2 11 6 S 1002,0 39 0,0
03.08.2020 19:00:00 17,3 7,1 5 3 16 9 ESE 1001,4 42 0,0
03.08.2020 18:00:00 17,2 7,0 6 4 17 9 SE 1001,6 39 0,0
03.08.2020 17:00:00 18,9 7,4 7 4 16 9 ESE 1001,5 47 0,0
03.08.2020 16:00:00 20,3 7,6 7 4 19 10 S 1001,6 34 0,0
03.08.2020 15:00:00 18,3 7,4 5 3 13 7 SSE 1002,3 37 0,0
03.08.2020 14:00:00 19,3 8,0 8 5 19 10 SSE 1002,4 27 0,0
03.08.2020 13:00:00 16,3 8,5 3 2 11 6 SE 1003,3 31 0,0
03.08.2020 12:00:00 16,3 7,8 4 2 9 5 SW 1003,6 33 0,0
03.08.2020 11:00:00 14,9 9,6 0 0 8 5 N 1004,0 33 0,0
03.08.2020 10:00:00 15,2 6,2 2 1 8 4 SE 1004,3 35 0,0
03.08.2020 09:00:00 13,4 9,6 4 2 7 4 W 1005,1 29 0,0
03.08.2020 08:00:00 12,7 8,2 0 0 5 3 N 1005,6 29 0,0
03.08.2020 07:00:00 11,1 8,0 0 0 5 3 N 1006,3 30 0,0
03.08.2020 06:00:00 9,5 7,1 4 2 7 4 NE 1006,7 31 0,0
03.08.2020 05:00:00 10,3 7,3 4 2 6 4 ENE 1006,9 33 0,0
03.08.2020 04:00:00 8,0 6,6 4 2 10 5 NE 1007,7 21 0,0
03.08.2020 03:00:00 8,5 6,6 2 1 9 5 NE 1008,0 29 0,0
03.08.2020 02:00:00 9,5 6,8 4 2 10 5 E 1008,1 37 0,0
03.08.2020 01:00:00 10,2 7,1 4 2 10 5 E 1008,3 41 0,0
03.08.2020 00:00:00 11,0 7,3 6 3 9 5 E 1008,3 37 0,0
02.08.2020 23:00:00 12,0 7,3 5 3 9 5 E 1008,3 44 0,0
02.08.2020 22:00:00 12,8 6,6 4 2 10 6 SE 1008,3 48 0,0
02.08.2020 21:00:00 13,3 6,9 4 2 17 9 ESE 1008,3 44 0,0
02.08.2020 20:00:00 15,3 6,6 8 5 18 10 ESE 1007,9 44 0,0
02.08.2020 19:00:00 16,0 7,0 7 4 21 12 ESE 1008,0 46 0,0
02.08.2020 18:00:00 16,6 8,3 7 4 27 15 SE 1008,3 44 0,0
02.08.2020 17:00:00 18,0 9,5 8 4 21 11 SE 1008,3 41 0,0
02.08.2020 16:00:00 17,6 9,5 11 6 22 12 E 1008,9 38 0,0
02.08.2020 15:00:00 18,1 10,5 9 5 23 12 ESE 1009,1 37 0,0
02.08.2020 14:00:00 16,8 10,4 6 4 19 10 ESE 1009,7 31 0,0
02.08.2020 13:00:00 16,9 9,6 9 5 19 10 SE 1010,1 29 0,0
02.08.2020 12:00:00 15,6 9,9 8 4 22 12 E 1010,6 33 0,0
02.08.2020 11:00:00 14,3 9,6 9 5 14 8 E 1011,1 36 0,0
02.08.2020 10:00:00 14,5 10,5 6 3 12 7 E 1011,4 35 0,0
02.08.2020 09:00:00 13,7 10,5 6 3 11 6 E 1011,7 38 0,0
02.08.2020 08:00:00 13,1 10,8 4 2 11 6 E 1012,0 36 0,0
02.08.2020 07:00:00 12,6 11,7 2 1 4 2 ESE 1012,1 29 0,0
02.08.2020 06:00:00 9,9 9,7 3 1 8 4 NW 1012,9 10 0,0
02.08.2020 05:00:00 8,1 7,9 6 3 9 5 W 1013,3 6 0,0
02.08.2020 04:00:00 6,4 6,1 4 2 6 3 W 1014,0 6 0,0
02.08.2020 03:00:00 7,3 7,0 0 0 6 3 N 1014,0 9 0,0
02.08.2020 02:00:00 7,8 7,5 3 2 6 4 WNW 1014,2 7 0,0
02.08.2020 01:00:00 8,5 8,2 0 0 5 3 N 1014,2 - 0,0
02.08.2020 00:00:00 9,6 9,1 0 0 7 4 N 1014,0 10 0,0
01.08.2020 23:00:00 10,6 9,7 0 0 4 2 N 1013,9 16 0,0
01.08.2020 22:00:00 13,0 10,2 2 1 14 8 E 1013,5 44 0,0
01.08.2020 21:00:00 15,8 10,1 8 5 18 10 E 1013,0 46 0,0
01.08.2020 20:00:00 17,5 10,1 9 5 18 10 E 1013,0 50 0,0
01.08.2020 19:00:00 18,6 11,2 7 4 16 9 ESE 1012,6 41 0,0
01.08.2020 18:00:00 18,0 11,1 6 4 22 12 ESE 1012,8 46 0,0
01.08.2020 17:00:00 18,8 11,6 13 7 29 16 ESE 1012,6 43 0,0
01.08.2020 16:00:00 22,2 9,7 5 3 18 10 SW 1012,1 36 0,0
01.08.2020 15:00:00 19,4 11,2 9 5 24 13 N 1013,0 35 0,0
01.08.2020 14:00:00 22,4 12,9 5 3 13 7 WSW 1012,9 37 0,0
01.08.2020 13:00:00 19,4 10,1 8 5 20 11 NE 1013,8 38 0,0
01.08.2020 12:00:00 18,0 12,0 7 4 14 7 NE 1014,7 50 0,0
01.08.2020 11:00:00 17,7 11,5 6 4 15 8 NNE 1014,9 37 0,0
01.08.2020 10:00:00 17,8 10,9 7 4 20 11 NE 1015,2 36 0,0
01.08.2020 09:00:00 17,8 10,7 7 4 14 8 ENE 1015,4 34 0,0
01.08.2020 08:00:00 15,9 12,1 5 3 11 6 WNW 1015,9 35 0,0
01.08.2020 07:00:00 14,0 11,5 7 4 11 6 WNW 1016,3 37 0,0
01.08.2020 06:00:00 13,1 11,0 9 5 14 7 WNW 1016,7 40 0,0
01.08.2020 05:00:00 12,1 10,7 7 4 13 7 W 1017,0 40 0,0
01.08.2020 04:00:00 12,1 10,7 8 4 11 6 WNW 1017,2 33 0,0
01.08.2020 03:00:00 12,5 11,9 6 4 8 5 W 1017,2 28 0,0
01.08.2020 02:00:00 11,7 11,2 4 2 9 5 WSW 1017,5 16 0,0
01.08.2020 01:00:00 11,5 10,9 2 1 10 6 W 1017,6 18 0,0
01.08.2020 00:00:00 11,0 10,2 6 3 13 7 WSW 1017,5 18 0,0
31.07.2020 23:00:00 12,1 10,9 6 3 10 6 W 1017,2 28 0,0
31.07.2020 22:00:00 14,0 11,7 5 3 13 7 W 1016,5 38 0,0
31.07.2020 21:00:00 16,1 11,7 6 4 12 7 W 1016,0 35 0,0
31.07.2020 20:00:00 16,8 11,9 4 2 14 8 WNW 1015,6 37 0,0
31.07.2020 19:00:00 20,5 7,8 6 3 14 8 NE 1014,7 43 0,0
31.07.2020 18:00:00 21,8 6,8 3 2 18 10 NE 1014,3 49 0,0
31.07.2020 17:00:00 21,0 8,6 8 4 16 9 NW 1014,4 44 0,0
31.07.2020 16:00:00 21,6 8,1 4 2 16 9 N 1014,3 38 0,0
31.07.2020 15:00:00 21,5 8,0 9 5 19 11 ENE 1014,4 36 0,0
31.07.2020 14:00:00 20,7 6,6 8 4 17 9 ENE 1014,6 34 0,0
31.07.2020 13:00:00 20,3 7,6 6 3 17 9 NNE 1014,6 41 0,0
31.07.2020 12:00:00 19,0 7,7 6 4 16 9 NNE 1015,0 40 0,0
31.07.2020 11:00:00 17,9 7,7 6 3 16 8 ENE 1015,2 33 0,0
31.07.2020 10:00:00 16,8 9,2 3 2 14 7 NE 1015,2 34 0,0
31.07.2020 09:00:00 14,7 10,3 5 3 10 5 WSW 1015,6 39 0,0
31.07.2020 08:00:00 14,1 9,3 4 2 11 6 ENE 1015,5 37 0,0
31.07.2020 07:00:00 13,1 9,7 8 4 11 6 E 1015,5 49 0,0
31.07.2020 06:00:00 12,4 10,6 3 2 6 4 NE 1015,5 47 0,0
31.07.2020 05:00:00 9,5 9,3 0 0 3 2 N 1015,7 8 0,0
31.07.2020 04:00:00 8,2 7,9 0 0 4 2 N 1015,4 7 0,0
31.07.2020 03:00:00 9,3 8,8 3 2 5 3 WSW 1014,7 3,3 0,0
31.07.2020 02:00:00 11,1 10,6 3 2 8 4 W 1013,9 3,9 0,0
31.07.2020 01:00:00 11,9 11,6 3 2 9 5 W 1013,2 9 0,0
31.07.2020 00:00:00 12,8 12,3 5 3 10 6 W 1012,6 16 0,0
30.07.2020 23:00:00 13,1 12,7 7 4 12 7 WNW 1012,1 12 0,0
30.07.2020 22:00:00 13,4 12,9 5 3 10 5 WNW 1011,6 7 0,0
30.07.2020 21:00:00 14,2 13,6 4 2 9 5 WSW 1011,0 9 0,0
30.07.2020 20:00:00 14,9 14,3 4 2 11 6 SW 1010,5 9 0,4
30.07.2020 19:00:00 15,4 14,3 5 3 19 10 SSW 1009,6 18 1,3
30.07.2020 18:00:00 17,2 13,5 8 4 19 11 ESE 1009,1 9 0,2
30.07.2020 17:00:00 17,0 12,8 12 7 29 16 ENE 1008,5 6 0,7
30.07.2020 16:00:00 19,4 9,9 15 8 30 16 E 1007,4 44 0,0
30.07.2020 15:00:00 19,9 9,8 16 9 33 18 E 1007,0 36 0,0
30.07.2020 14:00:00 20,2 9,4 17 9 34 19 ENE 1006,6 41 0,0
30.07.2020 13:00:00 19,4 9,6 17 9 33 18 ENE 1006,5 42 0,0
30.07.2020 12:00:00 19,7 9,6 17 9 34 18 ENE 1006,2 36 0,0
30.07.2020 11:00:00 19,2 9,4 20 11 37 20 ENE 1006,1 31 0,0
30.07.2020 10:00:00 17,7 10,1 18 10 37 20 ENE 1006,2 39 0,0
30.07.2020 09:00:00 17,2 10,8 17 9 31 17 ENE 1006,3 36 0,0
30.07.2020 08:00:00 16,7 11,2 12 7 25 13 ENE 1006,3 32 0,0
30.07.2020 07:00:00 15,5 11,1 12 6 20 11 E 1006,5 33 0,0
30.07.2020 06:00:00 13,8 10,2 10 6 27 15 E 1006,7 43 0,0
30.07.2020 05:00:00 12,4 11,1 6 4 14 8 E 1006,8 40 0,0
30.07.2020 04:00:00 10,4 9,9 0 0 9 5 N 1007,1 11 0,0
30.07.2020 03:00:00 11,1 10,6 0 0 5 3 N 1006,9 3,6 0,0
30.07.2020 02:00:00 12,1 11,8 0 0 10 6 N 1006,6 9 0,0
30.07.2020 01:00:00 12,6 12,3 6 4 11 6 W 1006,7 7 0,0
30.07.2020 00:00:00 12,4 12,1 2 1 4 2 WNW 1006,8 3,4 0,0
29.07.2020 23:00:00 12,7 12,3 0 0 6 4 N 1007,0 2,9 0,2
29.07.2020 22:00:00 13,0 12,5 0 0 9 5 N 1007,4 4,8 0,4
29.07.2020 21:00:00 13,4 12,8 7 4 14 8 E 1007,4 8 0,6
29.07.2020 20:00:00 14,0 12,9 10 5 17 9 E 1007,4 14 0,7
29.07.2020 19:00:00 14,3 12,7 8 4 23 13 E 1007,3 14 0,6
29.07.2020 18:00:00 16,3 12,7 10 5 21 11 E 1006,8 34 0,0
29.07.2020 17:00:00 16,9 12,7 12 6 23 12 E 1006,8 28 0,0

tt = temperature
td = dewpoint
ff = wind speed
fx = gusts
dd = wind direction
ppp = reduced air pressure
vv = visibility
rr = precipitation

Next stations